Station HAXA2 - Haines Harbor, AK Image indicating link to RSS feed of recent meteorological observations for station HAXA2


Conditions at HAXA2 as of
(8:22 am AKDT)
1622 GMT on 04/18/2024:
     

Click on the graph icon in the table below to see a time series plot of the last five days of that observation.

5-day plot - Wind Direction Wind Direction (WDIR):ESE ( 120 deg true )
5-day plot - Wind Speed Wind Speed (WSPD): 2 kts
5-day plot - Wind Gust Wind Gust (GST): 3 kts
5-day plot - Air Temperature Air Temperature (ATMP): 38.5 °F
5-day plot - Wind Speed at 10 Meters Wind Speed at 10 meters (WSPD10M): 2 kts
5-day plot - Wind Speed at 20 Meters Wind Speed at 20 meters (WSPD20M): 2 kts
5-day plot -  Wind Speed, Wind Gust and Atmospheric Pressure Combined plot of Wind Speed, Gust, and Air Pressure
Previous observations
TIME
(AKDT)
5-day plot - Wind Direction
WDIR
 
5-day plot - Wind Speed
WSPD
kts
5-day plot - Wind Gust
GST
kts
5-day plot - Wave Height
WVHT
ft
5-day plot - Dominant Wave Period
DPD
sec
5-day plot - Average Wave Period
APD
sec
5-day plot - Mean Wave Direction
MWD
 
5-day plot - Atmospheric Pressure
PRES
in
5-day plot - Pressure Tendency
PTDY
in
5-day plot - Air Temperature
ATMP
°F
5-day plot - Water Temperature
WTMP
°F
5-day plot - Dew Point
DEWP
°F
5-day plot - Salinity
SAL
psu
5-day plot - Visibility
VIS
nmi
5-day plot - Tide (above MLLW)
TIDE
ft
2024-04-18 08:12 am SE 2 3------ 37.9-----
2024-04-18 08:02 am SE 3 5------ 37.2-----
2024-04-18 07:52 amSSE 3 5------ 36.7-----
2024-04-18 07:42 amSSE 2 4------ 36.5-----
2024-04-18 07:32 am SE 2 4------ 36.9-----
2024-04-18 07:22 am E 1 2------ 36.5-----
2024-04-18 07:12 amSSE 1 3------ 35.4-----
2024-04-18 07:02 am SW 1 4------ 34.9-----
2024-04-18 06:52 am SW 1 3------ 34.2-----
2024-04-18 06:42 amSSE 2 5------ 34.0-----
2024-04-18 06:32 am S 2 4------ 33.6-----
2024-04-18 06:22 am S 1 3------ 33.6-----
2024-04-18 06:12 amSSW 1 3------ 33.4-----
2024-04-18 06:02 am SW 1 2------ 33.4-----
2024-04-18 05:52 am- 0 1------ 33.6-----
2024-04-18 05:42 amWSW 1 2------ 33.8-----
2024-04-18 05:32 am- 0 2------ 33.8-----
2024-04-18 05:22 am S 1 2------ 34.3-----
2024-04-18 05:12 am SW 2 4------ 34.2-----
2024-04-18 05:02 am W 2 4------ 33.8-----
2024-04-18 04:52 am SW 2 4------ 33.8-----
2024-04-18 04:42 am- 0 2------ 34.2-----
2024-04-18 04:32 am- 0 2------ 34.7-----
2024-04-18 04:22 am SW 2 4------ 34.5-----
2024-04-18 04:12 amWSW 2 3------ 34.7-----
2024-04-18 04:02 am- 0 3------ 34.5-----
2024-04-18 03:52 am S 2 2------ 34.9-----
2024-04-18 03:42 am- 0 2------ 35.1-----
2024-04-18 03:32 am- 0 2------ 35.4-----
2024-04-18 03:22 am S 1 2------ 35.8-----
2024-04-18 03:12 am S 1 3------ 35.8-----
2024-04-18 03:02 am- 0 3------ 36.1-----
2024-04-18 02:52 amWSW 3 5------ 35.4-----
2024-04-18 02:42 amWSW 3 5------ 35.4-----
2024-04-18 02:32 amSSW 3 5------ 35.8-----
2024-04-18 02:22 am S 2 4------ 36.3-----
2024-04-18 02:12 am S 2 3------ 35.6-----
2024-04-18 02:02 am- 0 1------ 36.0-----
2024-04-18 01:52 am- 0 3------ 35.8-----
2024-04-18 01:42 am W 2 4------ 35.6-----
2024-04-18 01:32 am- 0 3------ 36.3-----
2024-04-18 01:22 amSSW 1 2------ 36.9-----
2024-04-18 01:12 am SW 1 2------ 36.5-----
2024-04-18 01:02 am- 0 2------ 36.9-----
2024-04-18 12:52 am W 3 4------ 37.6-----
2024-04-18 12:42 am W 3 4------ 37.9-----
2024-04-18 12:32 am W 3 4------ 37.9-----
2024-04-18 12:22 am W 3 4------ 37.4-----
2024-04-18 12:12 amWSW 2 3------ 37.6-----
2024-04-18 12:02 am- 0 1------ 38.1-----
2024-04-17 11:52 pm SW 1 3------ 39.0-----
2024-04-17 11:42 pmWSW 2 3------ 39.0-----
2024-04-17 11:32 pmWSW 2 3------ 39.7-----
2024-04-17 11:22 pmWSW 1 3------ 39.7-----
2024-04-17 11:12 pmWSW 2 3------ 39.7-----
2024-04-17 11:02 pm SW 2 3------ 39.9-----
2024-04-17 10:52 pmSSW 1 2------ 40.3-----
2024-04-17 10:42 pmWSW 1 3------ 40.5-----
2024-04-17 10:32 pm SW 2 3------ 40.8-----
2024-04-17 10:22 pmWSW 2 3------ 41.0-----
2024-04-17 10:12 pmWSW 1 2------ 41.2-----
2024-04-17 10:02 pm W 2 3------ 41.4-----
2024-04-17 09:52 pm W 3 4------ 41.2-----
2024-04-17 09:42 pm W 3 4------ 41.7-----
2024-04-17 09:32 pmWSW 2 3------ 43.0-----
2024-04-17 09:22 pmESE 1 3------ 43.7-----
2024-04-17 09:12 pm E 2 5------ 43.9-----
2024-04-17 09:02 pmSSE 2 5------ 44.8-----
2024-04-17 08:52 pm E 1 4------ 45.5-----
2024-04-17 08:42 pm SE 2 4------ 45.9-----
2024-04-17 08:32 pmESE 3 4------ 46.0-----
2024-04-17 08:22 pm E 2 4------ 46.8-----
2024-04-17 08:12 pm N 2 4------ 47.8-----
2024-04-17 08:02 pm- 0 2------ 49.5-----
2024-04-17 07:52 pm SW 2 4------ 49.5-----
2024-04-17 07:42 pmSSE 3 5------ 49.1-----
2024-04-17 07:32 pmSSE 3 5------ 49.3-----
2024-04-17 07:22 pmSSE 2 4------ 49.6-----
2024-04-17 07:12 pm SE 3 4------ 49.8-----
2024-04-17 07:02 pm SE 1 4------ 51.1-----
2024-04-17 06:52 pm- 0 3------ 51.3-----
2024-04-17 06:42 pm NE 1 3------ 51.8-----
2024-04-17 06:32 pmENE 2 3------ 51.8-----
2024-04-17 06:22 pmENE 2 3------ 52.2-----
2024-04-17 06:12 pm NE 1 2------ 52.5-----
2024-04-17 06:02 pmNNE 2 4------ 51.8-----
2024-04-17 05:52 pmNNE 2 4------ 52.9-----
2024-04-17 05:42 pmENE 1 2------ 53.2-----
2024-04-17 05:32 pmNNE 1 2------ 52.7-----
2024-04-17 05:22 pmENE 2 3------ 52.0-----
2024-04-17 05:12 pmNNE 2 3------ 51.4-----
2024-04-17 05:02 pmNNE 3 5------ 51.3-----
2024-04-17 04:52 pm NE 3 4------ 50.7-----
2024-04-17 04:42 pmNNE 3 6------ 50.9-----
2024-04-17 04:32 pmENE 2 5------ 51.8-----
2024-04-17 04:22 pmNNE 3 4------ 52.0-----
2024-04-17 04:12 pm E 2 4------ 51.6-----
2024-04-17 03:52 pmESE 2 5------ 53.8-----
2024-04-17 03:42 pm NE 2 5------ 54.1-----
2024-04-17 03:32 pm S 2 7------ 54.1-----
2024-04-17 03:22 pm SE 3 7------ 53.4-----
2024-04-17 03:12 pm S 2 5------ 54.1-----
2024-04-17 03:02 pm E 2 3------ 52.9-----
2024-04-17 02:52 pmESE 2 4------ 52.7-----
2024-04-17 02:42 pm E 2 3------ 51.8-----
2024-04-17 02:32 pm E 2 4------ 50.5-----
2024-04-17 02:22 pm E 2 4------ 49.3-----
2024-04-17 02:12 pm E 3 5------ 48.7-----
2024-04-17 02:02 pm E 4 6------ 48.6-----
2024-04-17 01:52 pm E 4 7------ 48.6-----
2024-04-17 01:42 pm E 4 6------ 48.9-----
2024-04-17 01:32 pm E 4 6------ 48.4-----
2024-04-17 01:22 pm E 4 7------ 47.8-----
2024-04-17 01:12 pm E 4 7------ 47.7-----
2024-04-17 01:02 pmENE 4 6------ 47.3-----
2024-04-17 12:52 pm E 4 6------ 46.6-----
2024-04-17 12:42 pm E 4 6------ 46.4-----
2024-04-17 12:32 pm E 3 5------ 45.5-----
2024-04-17 12:22 pm NE 2 4------ 44.6-----
2024-04-17 12:12 pm NE 2 4------ 44.1-----
2024-04-17 12:02 pmENE 2 4------ 43.9-----
2024-04-17 11:52 amENE 2 3------ 43.3-----
2024-04-17 11:42 amENE 2 3------ 43.7-----
2024-04-17 11:32 amENE 2 4------ 42.6-----
2024-04-17 11:22 amNNE 2 4------ 42.3-----
2024-04-17 11:12 amENE 2 4------ 42.4-----
2024-04-17 11:02 amENE 2 3------ 42.4-----
2024-04-17 10:52 am NE 2 3------ 42.1-----
2024-04-17 10:42 am NE 2 3------ 41.7-----
2024-04-17 10:32 am NE 2 4------ 40.8-----
2024-04-17 10:22 am NE 2 3------ 40.1-----
2024-04-17 10:12 am NE 3 4------ 39.7-----
2024-04-17 10:02 am NE 3 5------ 39.6-----
2024-04-17 09:52 am NE 3 5------ 39.6-----
2024-04-17 09:42 am NE 3 4------ 39.6-----
2024-04-17 09:32 am NE 2 4------ 39.2-----
2024-04-17 09:22 am E 2 3------ 39.6-----
2024-04-17 09:12 am SE 2 3------ 39.0-----
2024-04-17 09:02 amSSE 2 3------ 37.6-----
2024-04-17 08:52 am S 3 4------ 36.9-----
2024-04-17 08:42 am SE 2 3------ 37.0-----
2024-04-17 08:32 amSSE 2 5------ 36.1-----
2024-04-17 08:22 amESE 2 3------ 36.9-----
2024-04-17 08:12 am SE 2 4------ 36.5-----
2024-04-17 08:02 amESE 2 3------ 37.0-----
2024-04-17 07:52 am E 1 3------ 36.9-----